date,time,SUV Intensity [MED/Hr],UV Index,Daily total [MED],Since Last [MED]
01/04/2022,00:06:23,0.001,0.0,0.0,0.0
01/04/2022,00:07:24,0.000,0.0,0.0,0.0
01/04/2022,00:08:23,0.000,0.0,0.0,0.0
01/04/2022,00:09:23,-0.000,0.0,0.0,0.0
01/04/2022,00:10:32,0.001,0.0,0.0,0.0
01/04/2022,00:12:24,0.000,0.0,0.0,0.0
01/04/2022,00:13:24,-0.001,0.0,0.0,0.0
01/04/2022,00:14:24,-0.001,0.0,0.0,0.0
01/04/2022,00:15:23,-0.000,0.0,0.0,0.0
01/04/2022,00:16:24,0.001,0.0,0.0,0.0
01/04/2022,00:17:24,0.001,0.0,0.0,0.0
01/04/2022,00:18:23,-0.001,0.0,0.0,0.0
01/04/2022,00:19:24,-0.001,0.0,0.0,0.0
01/04/2022,00:20:23,0.000,0.0,0.0,0.0
01/04/2022,00:21:23,-0.000,0.0,0.0,0.0
01/04/2022,00:22:23,0.000,0.0,0.0,0.0
01/04/2022,00:23:23,0.000,0.0,0.0,0.0
01/04/2022,00:24:23,0.000,0.0,0.0,0.0
01/04/2022,00:25:23,0.001,0.0,0.0,0.0
01/04/2022,00:26:23,0.000,0.0,0.0,0.0
01/04/2022,00:27:24,0.001,0.0,0.0,0.0
01/04/2022,00:28:24,-0.001,0.0,0.0,0.0
01/04/2022,00:29:24,0.000,0.0,0.0,0.0
01/04/2022,00:30:24,-0.000,0.0,0.0,0.0
01/04/2022,00:31:32,0.000,0.0,0.0,0.0
01/04/2022,00:33:24,0.000,0.0,0.0,0.0
01/04/2022,00:34:23,0.000,0.0,0.0,0.0
01/04/2022,00:35:24,0.000,0.0,0.0,0.0
01/04/2022,00:36:23,0.000,0.0,0.0,0.0
01/04/2022,00:37:25,-0.000,0.0,0.0,0.0
01/04/2022,00:38:23,0.002,0.0,0.0,0.0
01/04/2022,00:39:23,-0.001,0.0,0.0,0.0
01/04/2022,00:40:23,0.000,0.0,0.0,0.0
01/04/2022,00:41:23,0.000,0.0,0.0,0.0
01/04/2022,00:42:23,0.000,0.0,0.0,0.0
01/04/2022,00:43:24,0.000,0.0,0.0,0.0
01/04/2022,00:44:23,-0.000,0.0,0.0,0.0
01/04/2022,00:45:31,0.001,0.0,0.0,0.0
01/04/2022,00:46:23,0.000,0.0,0.0,0.0
01/04/2022,00:47:23,0.000,0.0,0.0,0.0
01/04/2022,00:48:24,-0.000,0.0,0.0,0.0
01/04/2022,00:49:24,0.000,0.0,0.0,0.0
01/04/2022,00:50:23,0.000,0.0,0.0,0.0
01/04/2022,00:51:23,0.000,0.0,0.0,0.0
01/04/2022,00:52:24,0.000,0.0,0.0,0.0
01/04/2022,00:53:24,-0.000,0.0,0.0,0.0
01/04/2022,00:54:23,0.000,0.0,0.0,0.0
01/04/2022,00:55:32,0.000,0.0,0.0,0.0
01/04/2022,00:56:23,0.000,0.0,0.0,0.0
01/04/2022,00:57:23,0.001,0.0,0.0,0.0
01/04/2022,00:58:24,-0.001,0.0,0.0,0.0
01/04/2022,00:59:23,0.000,0.0,0.0,0.0
01/04/2022,01:00:24,-0.001,0.0,0.0,0.0
01/04/2022,01:01:24,0.000,0.0,0.0,0.0
01/04/2022,01:02:24,0.001,0.0,0.0,0.0
01/04/2022,01:03:24,0.001,0.0,0.0,0.0
01/04/2022,01:04:23,0.001,0.0,0.0,0.0
01/04/2022,01:05:32,0.000,0.0,0.0,0.0
01/04/2022,01:07:24,0.000,0.0,0.0,0.0
01/04/2022,01:08:24,0.000,0.0,0.0,0.0
01/04/2022,01:09:23,-0.001,0.0,0.0,0.0
01/04/2022,01:10:23,0.000,0.0,0.0,0.0
01/04/2022,01:11:24,0.000,0.0,0.0,0.0
01/04/2022,01:12:23,-0.000,0.0,0.0,0.0
01/04/2022,01:13:24,0.000,0.0,0.0,0.0
01/04/2022,01:14:23,-0.000,0.0,0.0,0.0
01/04/2022,01:15:23,0.000,0.0,0.0,0.0
01/04/2022,01:16:24,0.000,0.0,0.0,0.0
01/04/2022,01:17:23,0.000,0.0,0.0,0.0
01/04/2022,01:18:25,-0.000,0.0,0.0,0.0
01/04/2022,01:19:32,-0.000,0.0,0.0,0.0
01/04/2022,01:21:24,0.000,0.0,0.0,0.0
01/04/2022,01:22:23,0.000,0.0,0.0,0.0
01/04/2022,01:23:24,0.000,0.0,0.0,0.0
01/04/2022,01:24:24,0.000,0.0,0.0,0.0
01/04/2022,01:25:24,-0.000,0.0,0.0,0.0
01/04/2022,01:26:23,-0.000,0.0,0.0,0.0
01/04/2022,01:27:23,-0.001,0.0,0.0,0.0
01/04/2022,01:28:24,-0.000,0.0,0.0,0.0
01/04/2022,01:29:23,0.000,0.0,0.0,0.0
01/04/2022,01:30:23,-0.001,0.0,0.0,0.0
01/04/2022,01:31:24,0.001,0.0,0.0,0.0
01/04/2022,01:32:23,0.000,0.0,0.0,0.0
01/04/2022,01:33:24,-0.000,0.0,0.0,0.0
01/04/2022,01:34:16,0.000,0.0,0.0,0.0
01/04/2022,01:35:24,-0.001,0.0,0.0,0.0
01/04/2022,01:36:24,0.000,0.0,0.0,0.0
01/04/2022,01:37:32,0.000,0.0,0.0,0.0
01/04/2022,01:39:24,0.000,0.0,0.0,0.0
01/04/2022,01:40:32,-0.001,0.0,0.0,0.0
01/04/2022,01:42:25,0.001,0.0,0.0,0.0
01/04/2022,01:43:23,0.000,0.0,0.0,0.0
01/04/2022,01:44:23,0.001,0.0,0.0,0.0
01/04/2022,01:45:24,-0.001,0.0,0.0,0.0
01/04/2022,01:46:24,0.000,0.0,0.0,0.0
01/04/2022,01:47:24,0.000,0.0,0.0,0.0
01/04/2022,01:48:23,-0.000,0.0,0.0,0.0
01/04/2022,01:49:32,0.000,0.0,0.0,0.0
01/04/2022,01:50:23,-0.000,0.0,0.0,0.0
01/04/2022,01:51:31,0.000,0.0,0.0,0.0
01/04/2022,01:53:24,0.000,0.0,0.0,0.0
01/04/2022,01:54:32,-0.000,0.0,0.0,0.0
01/04/2022,01:55:23,-0.001,0.0,0.0,0.0
01/04/2022,01:56:24,-0.001,0.0,0.0,0.0
01/04/2022,01:57:23,-0.001,0.0,0.0,0.0
01/04/2022,01:58:23,0.000,0.0,0.0,0.0
01/04/2022,01:59:24,0.000,0.0,0.0,0.0
01/04/2022,02:00:23,-0.001,0.0,0.0,0.0
01/04/2022,02:01:24,0.000,0.0,0.0,0.0
01/04/2022,02:02:24,0.000,0.0,0.0,0.0
01/04/2022,02:03:23,0.000,0.0,0.0,0.0
01/04/2022,02:04:32,0.001,0.0,0.0,0.0
01/04/2022,02:05:32,0.000,0.0,0.0,0.0
01/04/2022,02:06:23,0.000,0.0,0.0,0.0
01/04/2022,02:07:24,-0.001,0.0,0.0,0.0
01/04/2022,02:08:24,0.001,0.0,0.0,0.0
01/04/2022,02:09:24,-0.000,0.0,0.0,0.0
01/04/2022,02:10:24,0.000,0.0,0.0,0.0
01/04/2022,02:11:24,0.000,0.0,0.0,0.0
01/04/2022,02:12:32,0.000,0.0,0.0,0.0
01/04/2022,02:14:24,0.001,0.0,0.0,0.0
01/04/2022,02:15:32,0.000,0.0,0.0,0.0
01/04/2022,02:16:24,-0.001,0.0,0.0,0.0
01/04/2022,02:17:24,0.001,0.0,0.0,0.0
01/04/2022,02:18:23,0.000,0.0,0.0,0.0
01/04/2022,02:19:24,-0.001,0.0,0.0,0.0
01/04/2022,02:20:23,0.000,0.0,0.0,0.0
01/04/2022,02:21:24,0.000,0.0,0.0,0.0
01/04/2022,02:22:24,-0.000,0.0,0.0,0.0
01/04/2022,02:23:24,-0.000,0.0,0.0,0.0
01/04/2022,02:24:23,0.001,0.0,0.0,0.0
01/04/2022,02:25:24,-0.000,0.0,0.0,0.0
01/04/2022,02:26:31,-0.000,0.0,0.0,0.0
01/04/2022,02:27:23,-0.001,0.0,0.0,0.0
01/04/2022,02:28:24,-0.001,0.0,0.0,0.0
01/04/2022,02:29:23,0.000,0.0,0.0,0.0
01/04/2022,02:30:24,-0.001,0.0,0.0,0.0
01/04/2022,02:31:24,-0.001,0.0,0.0,0.0
01/04/2022,02:32:24,-0.001,0.0,0.0,0.0
01/04/2022,02:33:24,0.000,0.0,0.0,0.0
01/04/2022,02:34:24,0.000,0.0,0.0,0.0
01/04/2022,02:35:24,-0.000,0.0,0.0,0.0
01/04/2022,02:36:32,0.001,0.0,0.0,0.0
01/04/2022,02:37:23,0.001,0.0,0.0,0.0
01/04/2022,02:38:24,-0.000,0.0,0.0,0.0
01/04/2022,02:39:23,-0.000,0.0,0.0,0.0
01/04/2022,02:40:23,0.000,0.0,0.0,0.0
01/04/2022,02:41:24,0.001,0.0,0.0,0.0
01/04/2022,02:42:24,-0.001,0.0,0.0,0.0
01/04/2022,02:43:24,0.000,0.0,0.0,0.0
01/04/2022,02:44:24,0.001,0.0,0.0,0.0
01/04/2022,02:45:24,-0.000,0.0,0.0,0.0
01/04/2022,02:46:24,0.000,0.0,0.0,0.0
01/04/2022,02:47:24,-0.001,0.0,0.0,0.0
01/04/2022,02:48:24,0.000,0.0,0.0,0.0
01/04/2022,02:49:23,-0.000,0.0,0.0,0.0
01/04/2022,02:50:24,-0.001,0.0,0.0,0.0
01/04/2022,02:51:24,0.001,0.0,0.0,0.0
01/04/2022,02:52:24,0.000,0.0,0.0,0.0
01/04/2022,02:53:24,0.000,0.0,0.0,0.0
01/04/2022,02:54:24,-0.001,0.0,0.0,0.0
01/04/2022,02:55:23,-0.000,0.0,0.0,0.0
01/04/2022,02:56:23,0.001,0.0,0.0,0.0
01/04/2022,02:57:32,-0.000,0.0,0.0,0.0
01/04/2022,02:58:24,0.001,0.0,0.0,0.0
01/04/2022,02:59:23,0.000,0.0,0.0,0.0
01/04/2022,03:00:32,0.001,0.0,0.0,0.0
01/04/2022,03:01:24,0.000,0.0,0.0,0.0
01/04/2022,03:02:23,0.000,0.0,0.0,0.0
01/04/2022,03:03:24,0.001,0.0,0.0,0.0
01/04/2022,03:04:24,0.001,0.0,0.0,0.0
01/04/2022,03:05:24,0.000,0.0,0.0,0.0
01/04/2022,03:06:24,-0.000,0.0,0.0,0.0
01/04/2022,03:07:24,-0.001,0.0,0.0,0.0
01/04/2022,03:08:24,-0.001,0.0,0.0,0.0
01/04/2022,03:09:23,0.001,0.0,0.0,0.0
01/04/2022,03:10:23,0.000,0.0,0.0,0.0
01/04/2022,03:11:32,-0.001,0.0,0.0,0.0
01/04/2022,03:12:23,0.000,0.0,0.0,0.0
01/04/2022,03:13:24,0.000,0.0,0.0,0.0
01/04/2022,03:14:24,-0.000,0.0,0.0,0.0
01/04/2022,03:15:24,0.000,0.0,0.0,0.0
01/04/2022,03:16:24,0.001,0.0,0.0,0.0
01/04/2022,03:17:24,-0.001,0.0,0.0,0.0
01/04/2022,03:18:24,0.000,0.0,0.0,0.0
01/04/2022,03:19:23,-0.000,0.0,0.0,0.0
01/04/2022,03:20:24,0.000,0.0,0.0,0.0
01/04/2022,03:21:32,0.000,0.0,0.0,0.0
01/04/2022,03:22:24,-0.001,0.0,0.0,0.0
01/04/2022,03:23:24,0.001,0.0,0.0,0.0
01/04/2022,03:24:24,0.000,0.0,0.0,0.0
01/04/2022,03:25:24,-0.000,0.0,0.0,0.0
01/04/2022,03:26:24,0.000,0.0,0.0,0.0
01/04/2022,03:27:24,-0.000,0.0,0.0,0.0
01/04/2022,03:28:24,0.000,0.0,0.0,0.0
01/04/2022,03:29:24,0.000,0.0,0.0,0.0
01/04/2022,03:30:24,-0.000,0.0,0.0,0.0
01/04/2022,03:31:24,0.000,0.0,0.0,0.0
01/04/2022,03:32:23,0.001,0.0,0.0,0.0
01/04/2022,03:33:24,0.000,0.0,0.0,0.0
01/04/2022,03:34:24,0.001,0.0,0.0,0.0
01/04/2022,03:35:11,-0.000,0.0,0.0,0.0
01/04/2022,03:36:24,0.001,0.0,0.0,0.0
01/04/2022,03:37:24,-0.001,0.0,0.0,0.0
01/04/2022,03:38:15,0.000,0.0,0.0,0.0
01/04/2022,03:39:24,0.001,0.0,0.0,0.0
01/04/2022,03:40:24,-0.001,0.0,0.0,0.0
01/04/2022,03:41:24,-0.001,0.0,0.0,0.0
01/04/2022,03:42:23,-0.000,0.0,0.0,0.0
01/04/2022,03:43:24,0.001,0.0,0.0,0.0
01/04/2022,03:44:24,0.001,0.0,0.0,0.0
01/04/2022,03:45:24,0.000,0.0,0.0,0.0
01/04/2022,03:46:33,0.001,0.0,0.0,0.0
01/04/2022,03:47:24,0.000,0.0,0.0,0.0
01/04/2022,03:48:24,0.000,0.0,0.0,0.0
01/04/2022,03:49:23,0.000,0.0,0.0,0.0
01/04/2022,03:50:24,0.000,0.0,0.0,0.0
01/04/2022,03:51:24,-0.001,0.0,0.0,0.0
01/04/2022,03:52:24,0.000,0.0,0.0,0.0
01/04/2022,03:53:24,-0.001,0.0,0.0,0.0
01/04/2022,03:54:23,-0.001,0.0,0.0,0.0
01/04/2022,03:55:24,0.000,0.0,0.0,0.0
01/04/2022,03:56:32,0.000,0.0,0.0,0.0
01/04/2022,03:57:23,0.000,0.0,0.0,0.0
01/04/2022,03:58:23,0.000,0.0,0.0,0.0
01/04/2022,03:59:23,-0.001,0.0,0.0,0.0
01/04/2022,04:00:24,0.001,0.0,0.0,0.0
01/04/2022,04:01:24,0.001,0.0,0.0,0.0
01/04/2022,04:02:23,0.000,0.0,0.0,0.0
01/04/2022,04:03:24,0.000,0.0,0.0,0.0
01/04/2022,04:04:24,0.000,0.0,0.0,0.0
01/04/2022,04:05:24,0.000,0.0,0.0,0.0
01/04/2022,04:06:23,0.000,0.0,0.0,0.0
01/04/2022,04:07:32,0.000,0.0,0.0,0.0
01/04/2022,04:08:24,0.001,0.0,0.0,0.0
01/04/2022,04:09:24,0.000,0.0,0.0,0.0
01/04/2022,04:10:32,0.000,0.0,0.0,0.0
01/04/2022,04:12:25,0.000,0.0,0.0,0.0
01/04/2022,04:13:24,-0.001,0.0,0.0,0.0
01/04/2022,04:14:23,0.000,0.0,0.0,0.0
01/04/2022,04:15:24,-0.001,0.0,0.0,0.0
01/04/2022,04:16:24,0.000,0.0,0.0,0.0
01/04/2022,04:17:24,0.001,0.0,0.0,0.0
01/04/2022,04:18:24,0.001,0.0,0.0,0.0
01/04/2022,04:19:23,0.000,0.0,0.0,0.0
01/04/2022,04:20:24,0.001,0.0,0.0,0.0
01/04/2022,04:21:24,0.000,0.0,0.0,0.0
01/04/2022,04:22:24,0.000,0.0,0.0,0.0
01/04/2022,04:23:24,0.000,0.0,0.0,0.0
01/04/2022,04:24:24,0.000,0.0,0.0,0.0
01/04/2022,04:25:24,0.000,0.0,0.0,0.0
01/04/2022,04:26:23,0.000,0.0,0.0,0.0
01/04/2022,04:27:24,-0.001,0.0,0.0,0.0
01/04/2022,04:28:33,0.000,0.0,0.0,0.0
01/04/2022,04:29:23,-0.001,0.0,0.0,0.0
01/04/2022,04:30:24,0.000,0.0,0.0,0.0
01/04/2022,04:31:31,0.000,0.0,0.0,0.0
01/04/2022,04:32:32,-0.001,0.0,0.0,0.0
01/04/2022,04:33:23,-0.001,0.0,0.0,0.0
01/04/2022,04:34:24,0.001,0.0,0.0,0.0
01/04/2022,04:35:24,-0.000,0.0,0.0,0.0
01/04/2022,04:36:24,0.000,0.0,0.0,0.0
01/04/2022,04:37:24,0.000,0.0,0.0,0.0
01/04/2022,04:38:23,0.000,0.0,0.0,0.0
01/04/2022,04:39:32,0.000,0.0,0.0,0.0
01/04/2022,04:41:42,0.001,0.0,0.0,0.0
01/04/2022,04:43:25,-0.000,0.0,0.0,0.0
01/04/2022,04:44:23,-0.001,0.0,0.0,0.0
01/04/2022,04:45:33,0.000,0.0,0.0,0.0
01/04/2022,04:47:25,-0.001,0.0,0.0,0.0
01/04/2022,04:48:24,0.001,0.0,0.0,0.0
01/04/2022,04:49:24,-0.001,0.0,0.0,0.0
01/04/2022,04:50:24,0.000,0.0,0.0,0.0
01/04/2022,04:51:23,0.001,0.0,0.0,0.0
01/04/2022,04:52:23,0.000,0.0,0.0,0.0
01/04/2022,04:53:24,-0.001,0.0,0.0,0.0
01/04/2022,04:54:24,0.000,0.0,0.0,0.0
01/04/2022,04:55:24,0.000,0.0,0.0,0.0
01/04/2022,04:56:24,-0.001,0.0,0.0,0.0
01/04/2022,04:57:23,0.001,0.0,0.0,0.0
01/04/2022,04:58:23,0.000,0.0,0.0,0.0
01/04/2022,04:59:24,0.000,0.0,0.0,0.0
01/04/2022,05:00:24,-0.001,0.0,0.0,0.0
01/04/2022,05:01:24,0.001,0.0,0.0,0.0
01/04/2022,05:02:24,0.001,0.0,0.0,0.0
01/04/2022,05:03:33,0.001,0.0,0.0,0.0
01/04/2022,05:04:24,0.000,0.0,0.0,0.0
01/04/2022,05:05:23,0.000,0.0,0.0,0.0
01/04/2022,05:06:24,0.000,0.0,0.0,0.0
01/04/2022,05:07:24,0.000,0.0,0.0,0.0
01/04/2022,05:08:23,-0.001,0.0,0.0,0.0
01/04/2022,05:09:24,-0.000,0.0,0.0,0.0
01/04/2022,05:10:24,-0.001,0.0,0.0,0.0
01/04/2022,05:11:23,0.000,0.0,0.0,0.0
01/04/2022,05:12:24,0.000,0.0,0.0,0.0
01/04/2022,05:13:24,0.000,0.0,0.0,0.0
01/04/2022,05:14:23,0.000,0.0,0.0,0.0
01/04/2022,05:15:24,-0.000,0.0,0.0,0.0
01/04/2022,05:16:24,0.000,0.0,0.0,0.0
01/04/2022,05:17:33,0.001,0.0,0.0,0.0
01/04/2022,05:19:25,-0.000,0.0,0.0,0.0
01/04/2022,05:20:24,0.001,0.0,0.0,0.0
01/04/2022,05:21:23,0.000,0.0,0.0,0.0
01/04/2022,05:22:24,0.000,0.0,0.0,0.0
01/04/2022,05:23:24,0.000,0.0,0.0,0.0
01/04/2022,05:24:32,-0.000,0.0,0.0,0.0
01/04/2022,05:25:23,-0.000,0.0,0.0,0.0
01/04/2022,05:26:24,0.001,0.0,0.0,0.0
01/04/2022,05:27:24,0.001,0.0,0.0,0.0
01/04/2022,05:28:24,0.000,0.0,0.0,0.0
01/04/2022,05:29:24,0.001,0.0,0.0,0.0
01/04/2022,05:30:24,0.001,0.0,0.0,0.0
01/04/2022,05:31:24,0.001,0.0,0.0,0.0
01/04/2022,05:32:24,0.000,0.0,0.0,0.0
01/04/2022,05:33:24,0.001,0.0,0.0,0.0
01/04/2022,05:34:24,0.001,0.0,0.0,0.0
01/04/2022,05:35:24,0.001,0.0,0.0,0.0
01/04/2022,05:36:24,0.001,0.0,0.0,0.0
01/04/2022,05:37:24,0.000,0.0,0.0,0.0
01/04/2022,05:38:24,0.000,0.0,0.0,0.0
01/04/2022,05:39:24,0.001,0.0,0.0,0.0
01/04/2022,05:40:24,0.001,0.0,0.0,0.0
01/04/2022,05:41:24,0.002,0.0,0.0,0.0
01/04/2022,05:42:33,0.002,0.0,0.0,0.0
01/04/2022,05:43:23,0.002,0.0,0.0,0.0
01/04/2022,05:44:24,0.003,0.0,0.0,0.0
01/04/2022,05:45:32,0.002,0.0,0.0,0.0
01/04/2022,05:47:25,0.002,0.0,0.0,0.0
01/04/2022,05:48:24,0.004,0.0,0.0,0.0
01/04/2022,05:49:24,0.003,0.0,0.0,0.0
01/04/2022,05:50:24,0.003,0.0,0.0,0.0
01/04/2022,05:51:24,0.003,0.0,0.0,0.0
01/04/2022,05:52:24,0.003,0.0,0.0,0.0
01/04/2022,05:53:24,0.004,0.0,0.0,0.0
01/04/2022,05:54:24,0.004,0.0,0.0,0.0
01/04/2022,05:55:24,0.004,0.0,0.0,0.0
01/04/2022,05:56:33,0.004,0.0,0.0,0.0
01/04/2022,05:57:24,0.005,0.0,0.0,0.0
01/04/2022,05:58:24,0.005,0.0,0.0,0.0
01/04/2022,05:59:32,0.005,0.0,0.0,0.0
01/04/2022,06:01:25,0.006,0.0,0.0,0.0
01/04/2022,06:02:24,0.006,0.0,0.0,0.0
01/04/2022,06:03:24,0.006,0.0,0.0,0.0
01/04/2022,06:04:24,0.007,0.0,0.0,0.0
01/04/2022,06:05:24,0.006,0.0,0.0,0.0
01/04/2022,06:06:24,0.008,0.0,0.0,0.0
01/04/2022,06:07:24,0.008,0.0,0.001,0.001
01/04/2022,06:08:24,0.008,0.0,0.001,0.0
01/04/2022,06:09:24,0.007,0.0,0.001,0.0
01/04/2022,06:10:24,0.009,0.0,0.001,0.0
01/04/2022,06:11:24,0.009,0.0,0.001,0.0
01/04/2022,06:12:17,0.009,0.0,0.001,0.0
01/04/2022,06:13:24,0.010,0.0,0.001,0.0
01/04/2022,06:14:24,0.010,0.0,0.002,0.001
01/04/2022,06:15:24,0.010,0.0,0.002,0.0
01/04/2022,06:16:24,0.012,0.0,0.002,0.0
01/04/2022,06:17:32,0.012,0.0,0.002,0.0
01/04/2022,06:18:24,0.012,0.0,0.002,0.0
01/04/2022,06:19:24,0.013,0.0,0.003,0.001
01/04/2022,06:20:24,0.014,0.0,0.003,0.0
01/04/2022,06:21:24,0.014,0.0,0.003,0.0
01/04/2022,06:22:24,0.014,0.0,0.003,0.0
01/04/2022,06:23:24,0.014,0.0,0.003,0.0
01/04/2022,06:24:24,0.015,0.0,0.004,0.001
01/04/2022,06:25:24,0.016,0.0,0.004,0.0
01/04/2022,06:26:24,0.017,0.0,0.004,0.0
01/04/2022,06:27:24,0.018,0.0,0.004,0.0
01/04/2022,06:28:33,0.018,0.0,0.005,0.001
01/04/2022,06:29:24,0.018,0.0,0.005,0.0
01/04/2022,06:30:24,0.018,0.0,0.005,0.0
01/04/2022,06:31:32,0.019,0.0,0.006,0.001
01/04/2022,06:32:24,0.021,0.0,0.006,0.0
01/04/2022,06:33:24,0.021,0.0,0.006,0.0
01/04/2022,06:34:24,0.022,0.0,0.007,0.001
01/04/2022,06:35:24,0.022,0.0,0.007,0.0
01/04/2022,06:36:24,0.022,0.0,0.007,0.0
01/04/2022,06:37:24,0.023,0.0,0.008,0.001
01/04/2022,06:38:24,0.025,0.0,0.008,0.0
01/04/2022,06:39:24,0.026,0.0,0.009,0.001
01/04/2022,06:40:24,0.026,0.0,0.009,0.0
01/04/2022,06:41:24,0.027,0.0,0.01,0.001
01/04/2022,06:42:26,0.028,0.0,0.01,0.0
01/04/2022,06:43:24,0.028,0.0,0.01,0.0
01/04/2022,06:44:24,0.030,0.0,0.011,0.001
01/04/2022,06:45:24,0.030,0.0,0.011,0.0
01/04/2022,06:46:24,0.031,0.0,0.012,0.001
01/04/2022,06:47:24,0.032,0.0,0.013,0.001
01/04/2022,06:48:24,0.033,0.0,0.013,0.0
01/04/2022,06:49:24,0.033,0.0,0.014,0.001
01/04/2022,06:50:24,0.035,0.0,0.014,0.0
01/04/2022,06:51:24,0.035,0.0,0.015,0.001
01/04/2022,06:52:24,0.037,0.0,0.015,0.0
01/04/2022,06:53:24,0.038,0.0,0.016,0.001
01/04/2022,06:54:24,0.039,0.0,0.017,0.001
01/04/2022,06:55:24,0.041,0.0,0.017,0.0
01/04/2022,06:56:24,0.041,0.0,0.018,0.001
01/04/2022,06:57:24,0.043,0.0,0.019,0.001
01/04/2022,06:58:24,0.044,0.0,0.019,0.0
01/04/2022,06:59:24,0.045,0.0,0.02,0.001
01/04/2022,07:00:24,0.046,0.0,0.021,0.001
01/04/2022,07:01:24,0.048,0.0,0.022,0.001
01/04/2022,07:02:24,0.048,0.0,0.022,0.0
01/04/2022,07:03:24,0.048,0.0,0.023,0.001
01/04/2022,07:04:24,0.051,0.0,0.024,0.001
01/04/2022,07:05:24,0.052,0.0,0.025,0.001
01/04/2022,07:06:24,0.053,0.0,0.026,0.001
01/04/2022,07:07:24,0.055,0.0,0.027,0.001
01/04/2022,07:08:24,0.056,0.0,0.028,0.001
01/04/2022,07:09:24,0.058,0.0,0.029,0.001
01/04/2022,07:10:32,0.059,0.0,0.03,0.001
01/04/2022,07:11:23,0.060,0.0,0.031,0.001
01/04/2022,07:12:24,0.062,0.0,0.032,0.001
01/04/2022,07:13:24,0.063,0.0,0.033,0.001
01/04/2022,07:14:25,0.066,0.0,0.034,0.001
01/04/2022,07:15:24,0.067,0.0,0.035,0.001
01/04/2022,07:16:24,0.068,0.0,0.036,0.001
01/04/2022,07:17:24,0.070,0.0,0.037,0.001
01/04/2022,07:18:25,0.071,0.0,0.038,0.001
01/04/2022,07:19:24,0.073,0.0,0.039,0.001
01/04/2022,07:20:24,0.076,0.0,0.041,0.002
01/04/2022,07:21:24,0.077,0.0,0.042,0.001
01/04/2022,07:22:25,0.078,0.0,0.043,0.001
01/04/2022,07:23:24,0.080,0.0,0.045,0.002
01/04/2022,07:24:24,0.081,0.0,0.046,0.001
01/04/2022,07:25:24,0.083,0.0,0.047,0.001
01/04/2022,07:26:24,0.085,0.0,0.049,0.002
01/04/2022,07:27:24,0.086,0.0,0.05,0.001
01/04/2022,07:28:33,0.090,0.0,0.052,0.002
01/04/2022,07:29:25,0.089,0.0,0.053,0.001
01/04/2022,07:30:24,0.092,0.0,0.055,0.002
01/04/2022,07:31:33,0.094,0.0,0.056,0.001
01/04/2022,07:32:24,0.096,0.0,0.058,0.002
01/04/2022,07:33:24,0.098,0.0,0.059,0.001
01/04/2022,07:34:24,0.100,0.0,0.061,0.002
01/04/2022,07:35:49,0.104,0.0,0.063,0.002
01/04/2022,07:37:25,0.106,0.0,0.066,0.003
01/04/2022,07:38:24,0.108,0.0,0.068,0.002
01/04/2022,07:39:24,0.111,0.0,0.07,0.002
01/04/2022,07:40:24,0.112,0.0,0.072,0.002
01/04/2022,07:41:24,0.111,0.0,0.073,0.001
01/04/2022,07:42:31,0.118,0.0,0.076,0.003
01/04/2022,07:43:26,0.118,0.0,0.077,0.001
01/04/2022,07:44:33,0.123,0.0,0.08,0.003
01/04/2022,07:45:32,0.127,0.0,0.082,0.002
01/04/2022,07:46:24,0.128,0.0,0.084,0.002
01/04/2022,07:47:24,0.129,0.0,0.086,0.002
01/04/2022,07:48:24,0.126,0.0,0.088,0.002
01/04/2022,07:49:24,0.135,0.0,0.09,0.002
01/04/2022,07:50:24,0.137,0.0,0.092,0.002
01/04/2022,07:51:24,0.141,0.0,0.095,0.003
01/04/2022,07:52:24,0.145,0.0,0.097,0.002
01/04/2022,07:53:32,0.146,0.0,0.1,0.003
01/04/2022,07:54:23,0.148,0.0,0.102,0.002
01/04/2022,07:55:25,0.151,0.0,0.104,0.002
01/04/2022,07:56:24,0.153,0.0,0.107,0.003
01/04/2022,07:57:24,0.157,0.0,0.109,0.002
01/04/2022,07:58:24,0.161,0.0,0.112,0.003
01/04/2022,07:59:24,0.162,0.0,0.115,0.003
01/04/2022,08:00:24,0.166,0.0,0.117,0.002
01/04/2022,08:01:25,0.169,0.0,0.12,0.003
01/04/2022,08:02:24,0.172,0.0,0.123,0.003
01/04/2022,08:03:32,0.176,0.0,0.126,0.003
01/04/2022,08:04:25,0.179,0.0,0.129,0.003
01/04/2022,08:05:24,0.181,0.0,0.132,0.003
01/04/2022,08:06:24,0.184,0.0,0.135,0.003
01/04/2022,08:07:24,0.187,0.0,0.138,0.003
01/04/2022,08:08:24,0.191,0.0,0.141,0.003
01/04/2022,08:09:24,0.194,0.0,0.144,0.003
01/04/2022,08:10:24,0.197,0.0,0.148,0.004
01/04/2022,08:11:25,0.200,0.0,0.151,0.003
01/04/2022,08:12:24,0.205,0.0,0.154,0.003
01/04/2022,08:13:24,0.208,0.0,0.158,0.004
01/04/2022,08:14:24,0.210,0.0,0.161,0.003
01/04/2022,08:15:24,0.214,0.0,0.165,0.004
01/04/2022,08:16:24,0.217,0.0,0.168,0.003
01/04/2022,08:17:25,0.222,1.0,0.172,0.004
01/04/2022,08:18:24,0.225,1.0,0.176,0.004
01/04/2022,08:19:24,0.228,1.0,0.18,0.004
01/04/2022,08:20:24,0.232,1.0,0.183,0.003
01/04/2022,08:21:41,0.236,1.0,0.188,0.005
01/04/2022,08:23:25,0.242,1.0,0.195,0.007
01/04/2022,08:24:33,0.248,1.0,0.2,0.005
01/04/2022,08:25:24,0.251,1.0,0.203,0.003
01/04/2022,08:26:24,0.254,1.0,0.208,0.005
01/04/2022,08:27:33,0.258,1.0,0.213,0.005
01/04/2022,08:29:25,0.266,1.0,0.221,0.008
01/04/2022,08:30:25,0.272,1.0,0.225,0.004
01/04/2022,08:31:24,0.275,1.0,0.23,0.005
01/04/2022,08:32:24,0.279,1.0,0.234,0.004
01/04/2022,08:33:24,0.283,1.0,0.239,0.005
01/04/2022,08:34:25,0.285,1.0,0.244,0.005
01/04/2022,08:35:24,0.290,1.0,0.249,0.005
01/04/2022,08:36:24,0.296,1.0,0.253,0.004
01/04/2022,08:37:33,0.298,1.0,0.259,0.006
01/04/2022,08:38:24,0.303,1.0,0.263,0.004
01/04/2022,08:39:24,0.307,1.0,0.268,0.005
01/04/2022,08:40:25,0.312,1.0,0.274,0.006
01/04/2022,08:41:24,0.313,1.0,0.279,0.005
01/04/2022,08:42:24,0.320,1.0,0.284,0.005
01/04/2022,08:43:25,0.324,1.0,0.289,0.005
01/04/2022,08:44:24,0.329,1.0,0.295,0.006
01/04/2022,08:45:24,0.334,1.0,0.3,0.005
01/04/2022,08:46:24,0.337,1.0,0.306,0.006
01/04/2022,08:47:24,0.343,1.0,0.312,0.006
01/04/2022,08:48:24,0.347,1.0,0.317,0.005
01/04/2022,08:49:24,0.351,1.0,0.323,0.006
01/04/2022,08:50:24,0.356,1.0,0.329,0.006
01/04/2022,08:51:33,0.361,1.0,0.336,0.007
01/04/2022,08:52:24,0.364,1.0,0.341,0.005
01/04/2022,08:53:24,0.366,1.0,0.347,0.006
01/04/2022,08:54:25,0.372,1.0,0.353,0.006
01/04/2022,08:55:24,0.377,1.0,0.36,0.007
01/04/2022,08:56:24,0.382,1.0,0.366,0.006
01/04/2022,08:57:24,0.386,1.0,0.372,0.006
01/04/2022,08:58:24,0.390,1.0,0.379,0.007
01/04/2022,08:59:24,0.395,1.0,0.385,0.006
01/04/2022,09:00:24,0.401,1.0,0.392,0.007
01/04/2022,09:01:32,0.402,1.0,0.4,0.008
01/04/2022,09:02:24,0.408,1.0,0.405,0.005
01/04/2022,09:03:25,0.415,1.0,0.412,0.007
01/04/2022,09:04:33,0.419,1.0,0.42,0.008
01/04/2022,09:05:24,0.421,1.0,0.426,0.006
01/04/2022,09:06:24,0.427,1.0,0.433,0.007
01/04/2022,09:07:25,0.433,1.0,0.44,0.007
01/04/2022,09:08:25,0.438,1.0,0.448,0.008
01/04/2022,09:09:25,0.441,1.0,0.455,0.007
01/04/2022,09:10:25,0.448,1.0,0.463,0.008
01/04/2022,09:11:25,0.453,1.0,0.47,0.007
01/04/2022,09:12:24,0.457,1.0,0.478,0.008
01/04/2022,09:13:24,0.462,1.0,0.485,0.007
01/04/2022,09:14:32,0.468,1.0,0.494,0.009
01/04/2022,09:16:26,0.478,1.0,0.509,0.015
01/04/2022,09:17:32,0.486,1.0,0.518,0.009
01/04/2022,09:18:11,0.469,1.0,0.523,0.005
01/04/2022,09:19:25,0.493,1.0,0.533,0.01
01/04/2022,09:20:24,0.493,1.0,0.541,0.008
01/04/2022,09:21:24,0.503,1.0,0.549,0.008
01/04/2022,09:22:24,0.514,1.0,0.558,0.009
01/04/2022,09:23:24,0.487,1.0,0.566,0.008
01/04/2022,09:24:25,0.525,1.0,0.574,0.008
01/04/2022,09:25:25,0.516,1.0,0.583,0.009
01/04/2022,09:26:25,0.537,1.0,0.591,0.008
01/04/2022,09:27:24,0.535,1.0,0.6,0.009
01/04/2022,09:28:32,0.388,1.0,0.609,0.009
01/04/2022,09:29:24,0.549,1.0,0.615,0.006
01/04/2022,09:30:24,0.554,1.0,0.624,0.009
01/04/2022,09:31:24,0.534,1.0,0.632,0.008
01/04/2022,09:32:24,0.552,1.0,0.641,0.009
01/04/2022,09:33:25,0.564,1.0,0.65,0.009
01/04/2022,09:34:33,0.578,1.0,0.66,0.01
01/04/2022,09:36:24,0.393,1.0,0.675,0.015
01/04/2022,09:37:24,0.377,1.0,0.682,0.007
01/04/2022,09:38:24,0.320,1.0,0.688,0.006
01/04/2022,09:39:25,0.335,1.0,0.693,0.005
01/04/2022,09:40:24,0.397,1.0,0.7,0.007
01/04/2022,09:41:24,0.573,1.0,0.708,0.008
01/04/2022,09:42:24,0.416,1.0,0.715,0.007
01/04/2022,09:43:24,0.339,1.0,0.723,0.008
01/04/2022,09:44:24,0.329,1.0,0.728,0.005
01/04/2022,09:45:25,0.337,1.0,0.734,0.006
01/04/2022,09:46:25,0.401,1.0,0.74,0.006
01/04/2022,09:47:26,0.406,1.0,0.747,0.007
01/04/2022,09:48:24,0.404,1.0,0.754,0.007
01/04/2022,09:49:24,0.544,1.0,0.76,0.006
01/04/2022,09:50:24,0.392,1.0,0.768,0.008
01/04/2022,09:51:24,0.382,1.0,0.776,0.008
01/04/2022,09:52:25,0.403,1.0,0.783,0.007
01/04/2022,09:53:26,0.660,2.0,0.792,0.009
01/04/2022,09:54:24,0.649,1.0,0.802,0.01
01/04/2022,09:55:33,0.423,1.0,0.812,0.01
01/04/2022,09:56:24,0.381,1.0,0.82,0.008
01/04/2022,09:57:24,0.534,1.0,0.827,0.007
01/04/2022,09:58:24,0.415,1.0,0.834,0.007
01/04/2022,09:59:25,0.669,2.0,0.841,0.007
01/04/2022,10:00:24,0.639,1.0,0.852,0.011
01/04/2022,10:01:32,0.436,1.0,0.862,0.01
01/04/2022,10:03:25,0.428,1.0,0.876,0.014
01/04/2022,10:04:24,0.440,1.0,0.883,0.007
01/04/2022,10:05:24,0.426,1.0,0.89,0.007
01/04/2022,10:06:24,0.396,1.0,0.898,0.008
01/04/2022,10:07:24,0.368,1.0,0.904,0.006
01/04/2022,10:08:24,0.440,1.0,0.911,0.007
01/04/2022,10:09:24,0.726,2.0,0.921,0.01
01/04/2022,10:10:24,0.467,1.0,0.93,0.009
01/04/2022,10:11:33,0.578,1.0,0.939,0.009
01/04/2022,10:12:24,0.787,2.0,0.949,0.01
01/04/2022,10:13:24,0.799,2.0,0.962,0.013
01/04/2022,10:14:24,0.807,2.0,0.974,0.012
01/04/2022,10:15:24,0.807,2.0,0.987,0.013
01/04/2022,10:16:24,0.822,2.0,1.001,0.014
01/04/2022,10:17:24,0.832,2.0,1.015,0.014
01/04/2022,10:18:24,0.668,2.0,1.028,0.013
01/04/2022,10:19:25,0.841,2.0,1.04,0.012
01/04/2022,10:20:24,0.548,1.0,1.052,0.012
01/04/2022,10:21:33,0.828,2.0,1.064,0.012
01/04/2022,10:22:24,0.821,2.0,1.076,0.012
01/04/2022,10:23:24,0.835,2.0,1.09,0.014
01/04/2022,10:24:33,0.854,2.0,1.103,0.013
01/04/2022,10:25:24,0.847,2.0,1.114,0.011
01/04/2022,10:26:24,0.883,2.0,1.125,0.011
01/04/2022,10:27:32,0.894,2.0,1.141,0.016
01/04/2022,10:28:24,0.878,2.0,1.154,0.013